Location: Arnshausen
(50.1700°N, 10.0885°E)
Time: 15:34:04
(UTC+00:00)

Daily predictions for brighter satellites

Satellite Brightness Start Highest point End
(mag) Time Altitude Azimuth Time Altitude Azimuth Time Altitude Azimuth
Cosmos 1825 Rocket 3.8 20:12:35 10° S 20:16:54 53° E 20:21:15 10° NNE
ATLAS CENTAUR R/B 2.0 20:14:40 10° NNW 20:18:14 41° NE 20:21:43 10° ESE
Cosmos 1703 3.3 20:17:37 10° S 20:21:27 62° E 20:25:18 10° NNE
Cosmos 1812 Rocket 4.4 20:17:21 10° NNW 20:21:35 50° W 20:25:45 10° S
COSMOS 2428 3.7 20:17:49 10° SSE 20:22:31 28° ESE 20:27:14 10° NE
Cosmos 1844 3.8 20:17:36 10° NNW 20:23:25 88° WSW 20:29:09 10° SSE
Cosmos 2322 4.0 20:20:49 10° S 20:26:15 47° ESE 20:31:42 10° NE
CZ-4B DEB 4.4 20:28:27 10° SSE 20:31:47 68° ENE 20:35:08 10° N
Cosmos 783 Rocket 4.5 20:27:11 10° SSW 20:32:23 71° ESE 20:37:37 10° NNE
Cosmos 1709 Rocket 4.1 20:26:51 10° S 20:33:04 67° E 20:39:24 10° NNE
Atlas Centaur 2 4.2 20:33:12 10° SSW 20:35:47 13° S 20:38:34 10° SSE
Terra 2.4 20:31:44 10° SE 20:36:17 46° ENE 20:40:51 10° N
Cosmos 2237 Rocket 3.9 20:33:28 10° SE 20:36:31 15° E 20:39:34 10° ENE
CARTOSAT-1 3.6 20:33:06 10° SSE 20:37:23 68° ENE 20:41:42 10° N
Cosmos 2333 4.4 20:32:32 10° S 20:38:00 54° ESE 20:43:34 10° NE
Cosmos 2219 Rocket 2.7 20:33:19 10° S 20:38:27 39° ESE 20:43:38 10° NE
Cosmos 2360 Rocket 2.3 20:34:37 10° SSW 20:40:16 84° WNW 20:46:00 10° NNE
IGS 5A 3.9 20:36:30 10° S 20:40:37 59° W 20:44:45 10° NNW
Cosmos 2333 Rocket 2.5 20:42:44 10° S 20:48:12 50° ESE 20:53:42 10° NE
Cosmos 1315 Rocket 3.0 20:46:37 10° N 20:50:42 61° ENE 20:54:13 13° SSE
ATLAS 2AS CENTAUR R/B 3.6 20:43:26 10° NW 20:50:58 50° NNE 20:57:55 10° ESE
Resurs 01 Rocket 3.8 20:49:14 10° SW 20:52:41 22° W 20:56:11 10° NW
Cosmos-2242 3.8 20:49:54 10° NNW 20:54:07 51° W 20:58:20 10° S
Cosmos 1818 3.8 20:50:10 10° SW 20:55:36 79° NW 21:01:06 10° NE
Cosmos 773 Rocket 4.0 20:52:56 10° SSW 20:58:14 77° ESE 21:03:33 10° NNE
Cosmos 2221 3.1 20:54:54 10° N 20:59:08 44° ENE 21:02:29 15° SE
SL-16 R/B 4.1 20:54:23 10° WSW 20:59:33 35° NW 21:04:44 10° NNE
ERS-1 Rocket 3.2 20:56:51 10° S 21:01:52 72° WSW 21:06:56 10° NNW
GEOS 3 Rocket 3.7 20:57:19 10° NE 21:02:44 87° SE 21:08:09 10° SW
USA 215 3.3 20:59:39 10° ENE 21:06:06 56° SE 21:12:29 10° SW
Cosmos 2278 Rocket 2.5 21:02:45 10° NNW 21:08:23 62° NE 21:13:09 15° SE
Cosmos 1892 4.0 21:07:01 16° SE 21:09:05 25° E 21:12:14 10° NNE
ATLAS 5 CENTAUR R/B 2.0 21:08:04 10° SW 21:12:16 67° NW 21:17:05 10° NE
Meteor 1-11 4.3 21:07:10 10° SSW 21:12:48 83° WNW 21:18:32 10° N
Cosmos 1844 Rocket 3.9 21:07:59 10° NW 21:12:55 33° WSW 21:17:49 10° SSW
Cosmos 1400 Rocket 4.5 21:09:55 10° NNW 21:13:24 29° W 21:16:49 10° SSW
Gblst 52 Del rocket 4.3 21:09:07 10° WNW 21:14:45 68° SSW 21:20:33 12° SE
Cosmos 1943 Rocket 4.4 21:11:52 10° N 21:15:46 18° NE 21:19:39 10° ENE
SPOT 5 3.3 21:13:56 12° S 21:18:37 59° WSW 21:23:22 10° NNW
Lacrosse 5 rocket 3.3 21:17:05 10° WNW 21:20:51 31° N 21:24:25 10° ENE
SL-16 R/B 4.1 21:18:56 10° ESE 21:20:56 12° E 21:23:06 10° ENE
Nadezhda 3 Rocket 4.4 21:18:08 10° N 21:24:23 53° ENE 21:29:11 17° SSE
USA 81 4.3 21:20:25 10° SSW 21:25:40 70° W 21:30:58 10° N
Cosmos 2058 3.5 21:25:00 20° SSE 21:27:30 41° E 21:31:24 10° NNE
BREEZE M DEB (TANK) 3.7 21:26:18 10° WSW 21:27:36 14° SW 21:27:39 14° SSW
Cosmos 2154 Rocket 4.5 21:23:04 16° SSE 21:27:37 45° E 21:33:29 10° NNE
Cosmos 2181 Rocket 4.5 21:22:02 10° NNW 21:28:16 60° W 21:34:15 11° S
Cosmos 1408 3.9 21:29:05 19° SE 21:30:33 25° E 21:33:32 10° NNE
In-Cosmos 22 Rocket 4.3 21:29:55 17° S 21:33:53 56° E 21:39:05 10° NNE
Cosmos 2074 Rocket 4.0 21:29:15 13° S 21:34:51 77° E 21:41:05 10° NNE
TSX-5 3.6 21:31:41 10° NNW 21:35:07 88° ENE 21:37:36 22° SSE
Cosmos 1076 Rocket 3.9 21:36:09 21° SSE 21:38:41 48° E 21:42:49 10° NNE
Cosmos 1680 Rocket 4.1 21:35:41 19° SSE 21:39:06 42° ESE 21:44:06 10° NE
USA 267 3.3 21:34:04 14° SE 21:39:53 77° SW 21:46:29 10° WNW
CZ-4C R/B 4.3 21:38:21 10° NW 21:44:10 33° NNE 21:50:55 10° E
Cosmos 2084 4.3 21:41:29 10° NW 21:45:39 39° SW 21:48:05 21° S
Cosmos 1842 Rocket 4.0 21:41:40 10° NNW 21:45:56 54° W 21:49:02 18° SSW
JB-3 4.2 21:43:24 10° NNE 21:47:17 90° NNW 21:49:57 19° SSW
COSMOS 2455 4.3 21:42:47 10° NNW 21:48:12 33° NE 21:53:34 10° E
Cosmos 2151 4.2 21:47:18 20° SE 21:49:14 29° E 21:52:55 10° NNE
MTI 3.9 21:48:11 10° N 21:51:16 68° WNW 21:53:10 21° SSW
Cosmos 923 Rocket 4.0 21:52:20 16° SSW 21:56:33 72° ESE 22:01:51 10° NNE
ATLAS CENTAUR R/B 2.6 21:53:54 10° WNW 21:56:56 24° WSW 21:58:26 19° SSW
Cosmos 2327 Rocket 4.5 21:52:14 18° S 21:57:02 78° E 22:03:11 10° NNE
Cosmos 1825 2.9 21:58:09 26° SE 21:59:36 37° E 22:03:08 10° NNE
Cosmos 2369 Rocket 4.1 21:55:59 10° NNW 22:00:27 23° NE 22:04:53 10° E
ALOS 2 3.5 21:58:03 19° SE 22:00:42 38° ENE 22:04:47 10° N
Cosmos 1151 Rocket 4.4 21:56:59 10° N 22:00:46 28° ENE 22:03:13 17° ESE
Cosmos 1980 3.7 21:56:55 16° SSW 22:01:24 65° ESE 22:07:00 10° NE
Cosmos 967 Rocket 4.5 21:57:13 10° SSW 22:03:41 78° SE 22:10:10 10° NE
Cosmos 44 4.3 22:05:14 21° SE 22:05:52 22° ESE 22:09:14 10° ENE
COSMOS 2428 3.3 22:00:50 10° SW 22:06:25 59° NW 22:12:04 10° NNE
Cosmos 1869 4.4 22:03:09 10° NNW 22:06:51 37° W 22:09:22 18° SSW
Cosmos 371 Rocket 4.4 22:03:45 10° NNW 22:08:18 37° ENE 22:11:47 16° ESE
GP-B 4.1 22:05:14 10° NNE 22:09:17 34° E 22:11:23 22° SE
Cosmos 1295 Rocket 4.5 22:06:31 21° S 22:10:45 72° E 22:16:51 10° NNE
NOSS 0 Rocket 3.9 22:07:38 10° SSW 22:13:48 88° ESE 22:20:02 10° NNE
Cosmos 1624 Rocket 4.0 22:08:33 10° NNW 22:13:50 83° ENE 22:16:57 25° SSE
Terra 3.5 22:10:34 11° SSW 22:14:14 26° W 22:18:12 10° NW
NOSS 3-4 (A) 3.8 22:07:26 10° NW 22:14:20 75° SW 22:19:46 21° SSE
NOSS 3-4 (C) 3.8 22:07:32 10° NW 22:14:27 76° SW 22:19:55 21° SSE
Cosmos 2237 Rocket 2.2 22:14:58 16° SSW 22:19:40 81° ESE 22:25:25 10° NNE
SL-4 R/B 2.9 22:19:54 14° ENE 22:19:57 14° ENE 22:21:13 10° NNE
Genesis I 3.3 22:18:36 29° S 22:20:17 54° SE 22:24:07 10° NE
Cosmos 2344 3.6 22:16:02 14° SSW 22:22:21 57° ESE 22:30:12 10° NE
Cosmos 2219 Rocket 3.4 22:17:05 10° WSW 22:22:23 43° NW 22:27:44 10° NNE
Elektron 1 4.4 22:21:21 19° SW 22:23:37 75° SE 22:29:27 10° NE
Thor Agena Rocket 3.5 22:24:46 10° NNE 22:29:56 85° WNW 22:33:18 22° SSW
DELTA 2 R/B (1) 4.4 22:25:32 10° SW 22:36:22 - ESE 22:30:03 26° S
Cosmos 2333 Rocket 3.7 22:27:26 10° WSW 22:32:40 36° NW 22:37:58 10° NNE
Cosmos 2221 4.5 22:33:04 10° NW 22:36:24 22° W 22:39:20 12° SW
Iridium 2 4.5 22:37:03 10° NNW 22:40:42 43° W 22:42:26 26° SW
Cosmos 1515 Rocket 4.4 22:36:56 10° N 22:41:03 40° ENE 22:43:15 23° SE
BREEZE-M DEB (TANK) 1.6 22:37:57 10° W 22:41:22 46° SSW 22:41:22 46° SSW
Cosmos 1371 Rocket 4.3 22:36:23 10° NNW 22:41:31 55° WSW 22:44:15 27° S
ATLAS 2AS CENTAUR R/B 3.0 22:34:47 10° NW 22:42:12 59° WSW 22:46:25 25° SSE
EO 1 Del DPAF 3.5 22:39:19 10° N 22:43:03 61° WNW 22:44:59 26° SW
Cosmos 1892 4.3 22:41:59 14° SW 22:44:41 29° WNW 22:48:03 10° N
MOS 1-B Rocket 4.5 22:36:52 10° NNE 22:44:48 83° WNW 22:49:56 19° SSW
Cosmos 1766 Rocket 3.6 22:44:24 32° S 22:46:20 71° E 22:50:44 10° NNE
Cosmos 1328 Rocket 3.5 22:44:11 10° N 22:48:32 76° E 22:50:25 33° SSE
Gbstr 26 Del rocket 4.3 22:49:28 21° ESE 22:49:28 21° ESE 22:51:45 10° E
Aureole 2 Rocket 2.0 22:45:52 10° NNW 22:48:40 62° WSW 22:48:59 56° SSW
Okean 3 Rocket 3.5 22:47:02 31° S 22:49:09 86° E 22:53:37 10° N
USA 215 3.6 22:42:45 10° ENE 22:49:15 68° NNW 22:55:45 10° WSW
Cosmos 1606 2.7 22:46:59 10° NNW 22:50:53 80° W 22:52:19 37° S
Cosmos 2278 Rocket 3.6 22:47:28 10° NW 22:52:04 26° WSW 22:54:59 17° SW
Cosmos 2112 Rocket 4.4 22:48:23 16° SW 22:52:41 64° WNW 22:58:02 10° NNE
Cosmos 2297 3.7 22:48:14 10° NNW 22:53:59 77° WSW 22:57:11 27° SSE
Cosmos 2218 Rocket 4.1 22:50:54 26° S 22:54:40 70° E 23:00:58 10° NNE
Cosmos 2228 Rocket 4.3 22:52:28 10° N 22:56:41 34° ENE 22:59:19 19° SE
Cosmos 158 Rocket 4.5 22:52:56 15° SW 22:56:54 53° WNW 23:01:44 10° NNE
Cosmos 1420 Rocket 4.0 22:52:30 10° NNW 22:57:48 82° WSW 23:00:36 29° SSE
ATLAS 5 CENTAUR R/B 4.4 22:54:12 10° WNW 22:57:50 23° NNW 23:01:54 10° NE
Cosmos 2366 rocket 4.1 22:56:35 26° S 23:00:21 74° E 23:06:42 10° NNE
Cosmos 1943 Rocket 2.5 22:54:59 10° NNW 23:00:40 66° ENE 23:04:40 20° SE
Lacrosse 5 rocket 2.3 22:56:46 10° NW 23:00:42 45° NNE 23:04:24 10° E
Cosmos 1633 3.6 23:01:11 29° SE 23:02:08 34° E 23:05:26 10° NNE
SL-16 R/B 2.2 23:00:47 26° SSW 23:04:00 70° ESE 23:09:41 10° NNE
Cosmos 2056 Rocket 4.3 23:00:19 10° NW 23:05:23 42° WSW 23:07:58 25° SSW
Cosmos 1408 4.3 23:03:24 15° WSW 23:05:30 25° WNW 23:08:33 10° NNW
Cosmos 1959 Rocket 4.4 23:06:20 26° S 23:09:58 86° E 23:16:13 10° N
YAOGAN 11 4.2 23:09:09 31° SSE 23:11:13 74° ENE 23:15:39 10° N
Cosmos 1743 Rocket 4.2 23:12:36 29° SE 23:14:17 44° E 23:18:25 10° NNE
Cosmos 2341 Rocket 4.4 23:11:47 20° SSW 23:16:06 57° WNW 23:22:15 10° N
Cosmos 332 Rocket 3.7 23:14:22 10° NNW 23:19:11 81° WSW 23:21:28 31° SSE
USA 267 4.3 23:21:24 22° SSW 23:23:35 27° SW 23:29:01 10° WNW
Meteor 2-3 Rocket 3.7 23:21:02 28° S 23:24:09 88° E 23:29:55 10° NNE
Cosmos 2151 4.3 23:23:52 17° SW 23:26:27 32° WNW 23:30:19 10° N
Helios 1A 3.1 23:24:53 36° S 23:26:28 65° WSW 23:30:38 10° NNW
Cosmos 405 2.9 23:24:31 10° N 23:28:05 82° ENE 23:29:08 43° SSE
Meteor 1-26 Rocket 4.5 23:26:07 10° NNW 23:32:05 66° W 23:35:20 27° S
Cosmos 1452 Rocket 3.6 23:27:21 10° NNW 23:32:34 63° WSW 23:35:07 30° S
CZ-4C R/B 3.1 23:26:53 10° NW 23:33:50 72° NE 23:41:58 10° SE
Meteor 2-6 Rocket 4.4 23:29:04 10° N 23:34:33 64° ENE 23:37:54 23° SSE
COSMOS 2455 2.8 23:28:38 10° NW 23:34:40 73° WSW 23:38:24 24° SSE
PSLV R/B 4.0 23:30:47 10° NNE 23:34:54 50° E 23:36:34 31° SSE
SL-8 Rocket 4.4 23:30:59 21° SW 23:35:04 55° WNW 23:41:08 10° N
Cosmos 1825 4.3 23:32:56 12° WSW 23:35:16 20° WNW 23:38:09 10° NNW
Cosmos 1340 3.1 23:34:23 32° SW 23:35:50 55° WNW 23:39:33 10° N
Cosmos 1110 Rocket 4.3 23:31:16 10° NNW 23:36:32 65° ENE 23:40:16 20° SE
Cosmos 1933 4.4 23:33:11 10° NNW 23:36:50 34° W 23:38:13 26° SW
ALOS 2 4.0 23:35:27 21° SW 23:37:08 27° W 23:40:53 10° NW
Cosmos 1408 Rocket 3.8 23:35:56 29° SW 23:37:58 60° WNW 23:42:22 10° N
Cosmos 1151 Rocket 4.1 23:34:27 10° NNW 23:38:22 33° W 23:40:03 24° SW
SL-16 R/B 4.0 23:33:19 10° ESE 23:38:42 32° ENE 23:44:08 10° N
Cosmos 1603 4.4 23:36:25 25° SSE 23:39:03 40° ESE 23:44:23 10° NE
Cosmos 1727 Rocket 4.2 23:38:20 10° NNW 23:44:29 63° W 23:48:04 26° SSW
APEX 3.6 23:42:19 10° NW 23:44:22 29° W 23:44:22 29° W
Resurs 1-4 Rocket 4.1 23:41:35 10° NE 23:45:07 18° E 23:48:36 10° SE
Cosmos 2369 Rocket 2.1 23:39:34 10° NNW 23:45:12 86° WSW 23:48:49 23° SSE
Cosmos 44 3.5 23:43:37 19° WSW 23:46:40 60° NW 23:51:07 10° NE
Cosmos 1500 Rocket 3.5 23:44:49 34° S 23:46:44 87° E 23:51:09 10° N
SL-4 R/B 3.4 23:48:59 11° WNW 23:48:59 11° WNW 23:49:14 10° WNW
Cosmos 371 Rocket 4.2 23:44:18 10° NW 23:48:40 34° WSW 23:50:25 26° SW
SeaSat 1 4.1 23:45:29 10° ENE 23:49:13 21° ESE 23:51:20 16° SE
ISS -1.4 23:51:00 13° ESE 23:51:00 13° ESE 23:51:44 10° ESE
Helios 1B rocket 2.6 23:49:36 10° NNE 23:53:43 64° ESE 23:55:23 34° S
